Theta_e
306 309 314 329 338 339 336 328 328 333 331 331 329 329 327 331 337 332 340 340 337 340 336 336 333 330 336 330 336 335 336 330 328 322 321 321 322 321 321 323 326 329 330
305 307 321 329 337 339 335 334 333 337 332 332 332 331 330 333 344 333 336 335 334 339 329 333 332 333 342 335 334 332 329 327 327 322 315 310 313 315 318 320 323 319 321
303 306 325 331 335 339 344 343 343 338 336 340 343 342 342 342 342 340 335 336 338 343 340 336 338 332 329 327 330 329 328 322 325 322 316 310 306 309 314 316 318 319 318
305 305 326 328 337 339 346 348 349 346 347 349 342 342 339 336 340 339 340 335 339 341 335 330 329 330 329 327 329 330 329 326 320 321 322 318 315 312 313 314 315 320 319
305 306 321 328 337 336 337 341 344 343 342 343 341 338 336 330 329 332 328 326 326 328 330 329 328 328 327 327 327 326 325 325 324 322 320 318 317 315 312 312 313 316 314
306 306 322 325 331 330 334 337 333 330 330 334 331 329 329 328 329 326 324 326 328 328 327 329 327 328 327 325 326 324 322 322 323 324 324 322 321 322 320 318 318 317 319
308 311 319 322 331 331 330 331 328 324 323 323 323 321 322 321 320 321 321 320 319 322 321 321 320 320 321 321 321 319 319 318 318 318 319 320 320 320 318 317 316 316 319
316 317 321 329 328 327 326 325 321 319 320 321 320 319 319 320 318 317 316 316 315 318 319 318 318 318 319 318 318 317 317 317 316 315 315 316 316 315 315 314 313 310 312
315 318 325 325 324 324 322 321 320 319 319 319 317 317 316 316 316 316 316 318 317 318 317 318 318 318 318 318 318 316 315 316 316 316 315 314 315 315 315 315 316 313 307
317 320 321 321 320 320 319 318 317 316 317 316 316 315 314 315 314 314 313 314 315 316 316 316 316 316 317 317 316 315 315 314 314 315 312 311 312 313 315 312 311 311 309
316 316 316 316 316 316 315 314 314 314 313 312 312 312 311 312 313 312 313 314 314 315 315 315 315 314 314 314 314 313 314 313 312 312 312 312 313 310 309 309 308 308 308
314 315 314 315 314 313 313 310 311 311 310 310 310 309 311 311 311 312 312 313 312 313 314 314 314 314 314 312 311 311 312 311 310 311 309 308 310 306 307 308 307 307 307
314 314 313 312 310 309 309 308 307 307 308 309 308 308 309 309 309 310 311 311 311 311 311 311 311 312 311 311 311 310 310 309 308 307 306 306 305 303 304 304 305 306 307
313 309 307 307 307 307 307 306 306 307 307 307 306 306 306 307 308 309 310 310 311 309 308 309 310 311 311 311 309 308 305 305 306 306 305 304 304 304 304 303 304 305 304
310 307 306 306 307 306 306 307 306 306 306 306 305 305 306 307 307 307 308 309 308 308 308 308 308 308 309 310 305 306 304 305 306 306 305 305 307 309 308 305 305 304 302
307 307 307 306 305 305 306 306 305 305 305 305 304 306 306 305 304 304 304 303 303 304 305 306 309 309 310 304 304 305 306 305 303 302 303 304 306 305 306 306 306 305 302
305 305 305 305 304 304 304 302 303 304 304 303 304 303 302 302 301 301 300 300 299 300 301 303 307 308 307 303 302 303 305 303 302 303 304 302 303 305 305 305 305 304 304
303 303 304 303 301 301 300 301 301 301 301 300 299 299 298 298 298 297 297 297 299 300 298 300 304 305 305 302 300 301 303 303 303 302 302 302 303 304 303 303 302 302 303
302 301 301 299 298 297 298 298 297 297 297 296 295 296 296 296 297 297 297 298 298 296 297 300 302 303 304 301 299 300 301 302 302 302 303 304 302 300 298 300 299 299 300
301 299 298 298 296 295 295 294 294 296 293 294 294 295 293 293 295 296 296 297 294 296 300 301 302 303 303 301 298 299 302 302 303 303 302 301 300 298 296 298 299 297 299
300 299 297 295 294 294 293 291 291 290 293 294 294 293 293 294 295 295 296 296 296 298 299 300 302 303 303 302 298 298 302 302 300 300 301 302 299 296 295 296 299 299 301
300 299 296 294 293 292 290 289 289 291 291 292 291 292 292 294 295 294 294 294 296 298 298 298 299 299 300 300 299 298 297 299 299 300 301 301 298 296 295 295 295 295 296
297 297 296 294 292 291 291 289 289 291 291 290 290 291 292 293 293 293 293 294 295 295 295 295 297 298 300 300 299 298 297 298 301 302 301 298 296 295 296 296 295 295 301
295 295 293 292 291 292 292 291 291 291 291 289 289 290 290 291 292 292 293 293 293 293 294 294 294 296 298 299 302 303 303 300 302 303 302 300 297 297 299 299 306 310 311
293 293 291 290 290 291 290 290 292 292 289 289 289 288 289 289 290 291 291 292 293 293 292 293 295 295 295 297 296 295 297 299 299 295 300 304 309 309 311 313 313 312 312
293 292 291 290 290 290 289 290 291 293 290 287 287 287 288 289 289 289 290 293 292 293 292 292 292 295 294 293 292 292 292 292 292 296 301 307 311 311 309 310 312 312 309
Wind_Speed
9 10 7 10 13 11 11 12 10 10 7 2 2 1 2 3 3 3 4 5 3 10 6 3 6 6 6 3 8 6 8 3 2 2 4 4 5 5 5 5 5 6 5
7 9 11 8 11 16 13 13 9 12 7 4 2 3 5 4 5 6 4 5 4 8 4 2 6 8 5 4 7 7 2 1 1 2 1 4 5 3 5 4 4 7 5
11 9 14 12 12 16 19 19 18 16 13 11 6 4 5 1 3 6 8 8 11 11 8 8 7 5 5 3 1 3 4 2 3 4 3 2 4 3 4 6 5 7 6
9 8 17 14 14 14 14 17 19 17 15 14 11 14 10 6 4 2 4 5 6 8 8 8 7 6 3 3 3 3 1 2 3 3 3 4 5 5 12 4 4 6 7
10 10 20 18 18 13 12 11 9 7 3 3 3 5 4 3 3 4 7 6 5 7 6 6 5 4 4 3 3 4 5 2 2 3 3 3 3 3 5 11 10 8 5
10 11 17 17 15 10 9 9 12 8 7 6 7 7 8 10 8 5 4 4 1 3 6 5 5 5 4 2 2 2 2 3 3 3 3 3 4 6 7 11 11 12 8
8 9 17 14 15 15 16 12 13 10 9 9 8 8 10 9 9 8 6 5 3 3 5 4 4 4 3 4 3 2 4 3 3 4 4 3 5 4 6 8 11 12 9
16 14 13 17 18 16 15 14 13 11 9 8 8 8 9 6 5 6 4 4 3 2 3 5 4 3 4 3 4 3 4 4 4 7 6 5 5 4 4 7 11 14 12
15 17 16 16 15 14 13 12 10 9 8 8 7 7 7 8 6 6 5 3 4 3 4 4 3 3 4 4 5 4 5 4 4 5 5 4 4 3 4 3 5 8 12
17 19 16 15 12 13 13 11 9 9 7 8 7 5 6 6 6 6 4 3 1 1 1 2 3 5 5 5 6 4 4 6 4 5 6 6 4 5 5 4 5 5 10
18 20 17 16 15 12 11 8 8 8 7 7 6 7 6 6 5 4 4 4 3 4 3 3 4 6 7 6 5 5 6 7 6 7 6 7 6 4 4 4 4 7 7
16 18 18 13 10 9 8 7 6 7 7 6 6 5 6 6 5 4 3 3 2 3 4 4 5 5 5 5 6 7 6 8 6 6 4 3 3 3 4 5 7 7 7
15 11 12 11 11 9 8 9 8 8 8 8 7 8 8 7 5 5 4 4 5 6 6 6 7 8 7 7 7 6 5 4 4 5 3 4 5 5 6 9 10 11 10
11 10 15 14 13 12 11 10 9 8 8 7 7 7 6 5 5 6 6 5 4 3 3 4 6 6 8 6 5 3 3 5 5 5 5 5 7 10 11 13 14 12 11
11 12 13 12 13 12 11 10 9 8 7 7 7 6 5 5 6 6 7 7 7 6 6 6 6 7 6 5 5 7 6 7 10 9 9 10 14 20 18 12 14 13 12
17 17 15 15 14 11 10 10 8 7 6 6 6 6 7 7 7 7 7 7 7 7 9 9 8 9 5 8 9 5 7 12 11 11 11 11 17 17 20 22 24 19 15
18 17 15 13 12 12 11 9 7 7 7 7 8 10 10 10 9 9 9 8 8 7 7 10 10 6 6 11 10 10 10 11 12 12 12 13 12 17 15 18 19 21 24
17 14 13 14 13 14 12 9 9 9 9 9 10 11 11 11 9 8 7 7 8 10 8 10 9 9 8 9 10 13 12 12 12 12 13 14 16 14 14 15 15 15 16
16 15 14 13 12 11 8 7 7 7 8 10 10 10 10 10 9 9 10 10 10 9 10 10 10 9 10 10 12 12 11 11 13 13 15 14 15 21 18 14 16 15 17
14 14 13 12 9 6 7 7 7 9 9 10 10 10 8 9 10 10 10 8 6 10 9 10 10 11 12 12 13 14 9 12 11 13 13 18 18 22 19 14 14 16 19
15 13 10 7 8 9 9 10 10 10 10 10 10 10 9 9 9 9 9 9 9 10 10 10 9 10 10 10 15 18 11 8 8 9 12 12 20 17 19 19 14 19 18
10 11 8 9 9 8 7 9 9 10 9 9 9 9 9 8 7 9 8 9 9 9 8 10 9 7 8 11 13 13 10 12 8 12 12 14 19 20 24 18 20 23 20
9 7 9 9 6 7 7 9 9 10 10 9 9 9 9 9 9 7 9 7 7 7 7 7 8 9 9 9 14 16 15 13 11 11 16 24 25 25 21 21 17 12 7
9 9 9 7 6 7 7 6 7 9 8 11 10 9 9 10 8 7 6 7 7 7 7 7 8 9 9 9 9 8 10 12 14 12 13 19 22 21 18 16 9 5 7
7 7 7 6 7 7 5 3 4 7 10 10 9 8 7 9 9 8 7 7 7 6 8 8 8 9 10 10 16 16 11 10 12 15 10 10 10 9 9 7 8 6 5
7 7 7 7 7 6 6 6 6 6 7 10 8 8 8 7 7 7 8 6 8 13 13 12 8 7 9 18 21 20 19 18 11 4 8 12 9 8 8 6 6 6 4
Wind_Direction
202 184 163 142 137 127 129 136 133 146 144 111 111 57 127 71 165 211 177 129 96 159 161 153 176 189 229 223 182 211 218 240 331 13 336 319 298 314 315 298 304 301 295
170 186 141 142 143 146 145 142 158 169 170 169 180 155 139 184 191 154 192 174 165 191 229 141 201 203 232 212 192 190 202 39 33 221 173 305 320 294 273 294 284 281 278
181 183 147 155 138 142 151 164 175 171 176 189 194 183 188 120 131 168 189 198 195 189 182 198 221 200 160 204 216 77 115 205 277 223 174 267 246 290 239 254 265 274 276
175 178 152 151 150 156 146 151 160 168 184 178 171 170 173 172 180 156 119 138 184 167 151 158 169 159 147 74 37 62 99 125 272 308 236 219 208 278 299 265 261 261 274
188 172 157 155 159 149 146 137 136 119 163 137 140 137 112 123 100 92 113 129 159 141 126 116 105 88 62 60 11 349 337 309 246 235 294 305 277 262 272 297 297 285 262
192 165 161 150 152 116 88 83 93 81 66 96 104 100 123 122 112 103 89 53 6 70 67 73 89 100 97 57 17 1 333 311 294 273 285 270 288 298 297 297 293 287 291
148 132 128 110 100 100 97 97 88 73 62 58 61 86 90 82 87 100 105 86 64 46 54 54 45 36 19 359 336 335 309 290 293 294 287 298 292 327 315 306 300 298 307
101 94 105 106 107 102 101 98 95 92 84 76 69 59 51 70 84 94 94 101 110 115 68 57 47 25 11 339 314 302 277 278 281 283 275 281 278 276 271 289 301 299 299
107 111 108 104 103 102 99 99 96 93 93 99 91 79 85 93 96 78 70 43 46 28 21 14 356 315 281 265 251 239 257 271 266 258 260 259 259 269 272 299 297 301 307
99 97 94 88 85 90 95 90 95 104 107 89 97 92 88 82 72 67 69 79 103 104 318 305 308 295 295 287 269 272 271 259 261 263 267 262 263 264 274 256 258 268 289
100 98 91 88 87 83 88 95 100 107 99 94 87 77 64 60 59 54 32 24 10 347 322 277 263 256 256 263 274 259 251 258 251 251 249 254 267 271 267 268 265 270 274
106 103 104 103 99 95 81 83 84 82 79 90 81 73 64 52 39 24 10 358 326 303 284 297 288 285 280 282 280 266 265 256 262 276 287 284 302 304 298 286 281 274 269
78 103 101 88 82 78 69 61 50 49 42 44 42 36 33 27 8 348 329 321 322 323 353 356 334 324 325 312 283 278 282 320 269 269 293 286 279 272 287 290 288 281 277
355 74 80 80 76 72 64 52 39 41 29 29 27 22 6 350 335 327 320 313 299 312 316 300 284 282 271 265 278 328 323 288 292 290 293 288 291 289 289 279 272 269 272
136 99 88 78 69 57 51 43 37 29 24 16 4 352 355 358 356 356 356 357 1 347 323 302 291 282 290 305 342 327 324 321 315 304 288 277 273 272 277 274 270 269 271
110 91 80 70 65 57 53 43 23 8 5 357 356 351 10 10 11 10 1 4 354 346 334 319 304 298 292 303 308 323 310 309 302 294 284 279 282 279 272 269 267 259 264
87 83 78 71 60 59 46 30 9 357 1 1 11 17 12 9 4 359 356 347 338 325 315 306 300 291 297 313 307 310 312 299 287 280 280 278 275 274 271 269 263 266 260
81 79 75 66 52 43 33 11 5 12 2 19 12 10 1 352 348 343 329 319 315 313 310 302 307 307 307 298 302 302 302 290 281 269 272 273 275 270 273 277 277 273 269
76 75 69 66 56 41 15 7 13 2 19 9 360 353 347 334 329 326 321 316 313 312 298 294 292 304 299 290 288 291 298 284 283 278 275 273 281 282 279 277 276 273 266
82 83 74 65 57 30 14 20 7 18 4 354 347 338 327 314 315 314 312 302 282 287 287 295 296 289 290 287 285 294 294 292 289 288 287 283 276 277 271 268 273 272 264
94 92 91 94 71 41 27 25 16 2 342 343 334 325 317 316 314 315 308 308 303 296 291 292 291 289 291 300 298 293 298 282 286 293 293 284 276 271 269 261 260 256 264
108 114 111 91 77 60 45 31 11 345 333 328 318 323 319 316 316 312 312 310 300 305 319 312 305 298 300 297 294 288 259 280 282 290 283 278 285 292 290 289 268 260 263
83 85 100 104 103 98 66 35 1 351 337 333 330 323 326 324 320 319 326 322 324 319 313 313 310 313 317 307 295 285 280 289 292 277 284 293 286 282 283 267 252 264 255
70 69 67 69 68 77 81 38 10 349 338 351 343 339 336 334 340 334 329 322 318 316 315 315 311 304 303 303 305 309 314 306 288 312 297 290 288 274 264 281 270 238 277
71 72 74 70 79 72 71 91 2 345 354 345 347 342 334 339 338 339 327 316 305 301 307 303 298 307 310 310 311 299 301 290 292 310 303 301 322 315 311 314 312 275 258
73 63 55 71 71 66 48 36 9 359 356 354 354 347 342 338 336 330 327 315 299 305 306 294 270 336 305 306 299 294 292 290 303 277 290 316 323 296 299 331 305 281 280